Location: Unspecified
(42.1900°N, 71.3291°W)
Time: 06:35:01
(UTC-05:00)

Okean 3 - Visible Passes

Search period start: 25 November 2017 00:00
Search period end: 05 December 2017 00:00
Orbit: 576 x 603 km, 82.5° (Epoch: 25 November)

Date Brightness Start Highest point End Pass type
(mag) Time Alt. Az. Time Alt. Az. Time Alt. Az.
25 Nov 3.7 05:47:34 10° N 05:51:48 72° E 05:56:01 10° SSE visible
26 Nov 3.4 05:55:44 10° NNW 05:59:58 75° W 06:04:11 10° S visible
26 Nov 5.3 18:22:40 10° S 18:23:55 19° SSE 18:23:55 19° SSE visible
27 Nov 6.4 04:28:14 10° NE 04:30:32 14° ENE 04:32:49 10° ESE visible
27 Nov 3.7 06:03:59 10° NNW 06:08:04 48° W 06:12:10 10° SSW visible
27 Nov 4.5 18:30:42 10° S 18:33:12 36° S 18:33:12 36° S visible
28 Nov 6.0 04:35:39 10° NNE 04:38:51 20° ENE 04:42:03 10° ESE visible
28 Nov 4.2 06:12:22 10° NNW 06:16:09 32° W 06:19:56 10° SSW visible
28 Nov 5.4 17:05:26 10° E 17:05:50 10° E 17:05:50 10° E visible
28 Nov 4.1 18:38:56 10° SSW 18:42:26 53° WSW 18:42:26 53° WSW visible
29 Nov 5.4 04:43:23 10° NNE 04:47:07 30° ENE 04:50:52 10° SE visible
29 Nov 4.7 06:20:56 10° NW 06:24:12 22° W 06:27:28 10° SW visible
29 Nov 5.0 17:11:47 10° SE 17:14:21 16° E 17:15:01 16° ENE visible
29 Nov 4.7 18:47:20 10° SSW 18:51:14 39° WNW 18:51:38 38° WNW visible
30 Nov 4.6 04:51:17 10° N 04:55:21 44° ENE 04:59:26 10° SSE visible
30 Nov 4.5 17:19:01 10° SE 17:22:21 24° E 17:24:09 18° NE visible
30 Nov 5.5 18:55:58 10° SW 18:59:29 26° WNW 19:00:45 22° NW visible
01 Dec 3.7 04:59:26 11° N 05:03:33 68° E 05:07:48 10° SSE visible
01 Dec 4.0 17:26:37 10° SSE 17:30:24 35° E 17:33:12 16° NNE visible
01 Dec 6.1 19:04:53 10° WSW 19:07:46 18° WNW 19:09:48 13° NW visible
02 Dec 3.3 05:08:33 18° NNW 05:11:43 79° W 05:15:58 10° S visible
02 Dec 3.5 17:34:26 10° S 17:38:29 54° E 17:42:10 12° NNE visible
02 Dec 6.5 19:14:18 10° W 19:16:06 12° WNW 19:17:55 10° NW visible
03 Dec 6.4 03:41:07 13° NE 03:42:15 14° ENE 03:44:26 10° E visible
03 Dec 3.6 05:17:44 26° NNW 05:19:50 51° W 05:23:58 10° S visible
03 Dec 3.3 17:42:26 10° S 17:46:36 84° E 17:50:48 10° N visible
04 Dec 5.9 03:50:21 20° ENE 03:50:35 20° ENE 03:53:42 10° ESE visible
04 Dec 4.1 05:26:58 30° WNW 05:27:55 34° W 05:31:45 10° SSW visible
04 Dec 3.8 17:50:38 10° SSW 17:54:46 63° W 17:58:55 10° N visible
